Regional Weather Roundup
Issued by NWS Midland/Odessa, TX

Current Version | Previous Version | Text Only | Print | Product List | Glossary On
Versions: 1 2 3 4 5 6 7 8 9 10 11 12 13 14 15 16 17 18 19 20 21 22 23 24 25 26 27 28 29 30 31 32 33 34 35 36 37 38 39 40 41 42 43 44 45 46 47 48 49 50
000
ASUS44 KMAF 300610
RWRMAF
MIDLAND AREA WEATHER ROUNDUP
NATIONAL WEATHER SERVICE MIDLAND TX
100 AM CDT MON MAR 30 2015

...IN SOUTHWEST TEXAS AND SOUTHEAST NEW MEXICO...

CITY           SKY/WX    TMP DP  RH WIND       PRES   REMARKS
ALPINE         PTCLDY    56  35  45 CALM      30.27S
ANDREWS        FAIR      56  38  52 E6        30.19R
ARTESIA        MOCLDY    61  30  31 W6        30.23R
BIG SPRING     PTCLDY    65  35  33 NE10      30.19R
CARLSBAD       PTCLDY    65  32  29 S9        30.19R
DRYDEN           N/A     69  54  58 N9        30.08R
FORT STOCKTON  CLEAR     64  43  46 E8        30.16R
GUAD PASS      MOCLDY    59  31  34 NE32      30.28R
HOBBS          CLOUDY    59  28  31 E14       30.20S
MARFA          PTCLDY    57  30  35 N12       30.24S
MIDLAND AIRPK  MOCLDY    64  37  37 SE7       30.19R
MIDLAND INTL   MOCLDY    62  39  42 E10       30.19R
ODESSA         CLOUDY    63  37  38 E13       30.19R
PECOS          CLEAR     63  40  43 E7        30.16R
PRESIDIO       FAIR      73  25  16 N9        30.06S
SEMINOLE       MOCLDY    55  33  43 CALM      30.20S
SNYDER         MOCLDY    63  38  40 NE14      30.17S
WINK           PTCLDY    65  37  35 E9        30.15R
$$
...OTHER STATIONS IN TEXAS...

CITY           SKY/WX    TMP DP  RH WIND       PRES   REMARKS
ABILENE        PTCLDY    60  45  57 N7        30.13F
AMARILLO       PTCLDY    49  25  39 SE8       30.25F
AUSTIN         CLEAR     63  60  90 S10       30.11F
BROWNSVILLE    CLEAR     69  66  90 S13       30.13S
CORPUS CHRISTI PTCLDY    67  65  93 S14       30.11S
DALLAS FTW     PTCLDY    66  55  67 SE7       30.07S
DEL RIO        MOCLDY    72  57  59 E12       30.04S
EL PASO        CLOUDY    78  16   9 W10       30.14R
HOUSTON INT    PTCLDY    67  63  87 S5        30.16R
LUBBOCK        MOCLDY    51  24  34 NE10      30.21R
SAN ANGELO     CLEAR     63  47  55 N3        30.14R
SAN ANTONIO    CLEAR     66  62  87 S10       30.13R
WACO           CLEAR     65  55  70 S12       30.10S
WICHITA FALLS  NOT AVBL
$$
...OTHER LOCATIONS IN NEW MEXICO...

CITY           SKY/WX    TMP DP  RH WIND       PRES   REMARKS
ALAMAGORDO     MOCLDY    66  21  18 S3        30.18R
ALBUQUERQUE    MOCLDY    61  26  26 E22G31    30.21R
CANNON AFB     CLEAR     53  25  34 E13       30.24S
CLOVIS         CLEAR     46  25  42 E6        30.25S
HOLLOMAN AFB   MOCLDY    69  15  12 VRB2      30.14S
ROSWELL        MOCLDY    59  32  36 W6        30.23R
RUIDOSO        CLOUDY    52  27  37 SE3       30.38S
SANTA FE       PTCLDY    55  22  27 VRB5      30.30R
TRUTH OR CONSE CLOUDY    62  18  18 VRB5      30.17S
TUCUMCARI      PTCLDY    49  28  44 W8        30.23S
$$


USA.gov is the U.S. government's official web portal to all federal, state and local government web resources and services.